User: anonymous   Login
Location: �mondeville
(49.4591°N, 1.3431°W)
Time: 13:26:34
(UTC+00:00)
Language:

Cosmos 2228 - Orbit

View from above orbital plane
View from above orbital plane
View from above satellite
View from above satellite

Ground track
Ground track

The orbit data is extracted from the following two-line orbital elements,

1 22286U 92094A   19347.85099752 +.00000170 +00000-0 +15754-4 0  9997
2 22286 082.5214 235.9656 0020849 345.1149 014.9452 14.88093757436695
Epoch (UTC): 13 December 2019 20:25:26
Eccentricity: 0.0020849
inclination: 82.5214°
perigee height: 589 km
apogee height: 618 km
right ascension of ascending node: 235.9656°
argument of perigee: 345.1149°
revolutions per day: 14.88093757
mean anomaly at epoch: 14.9452°
orbit number at epoch: 43669

The dashed part of the orbit path shows where the satellite is in the earth's shadow,  

DLR